CZ-2D DEB (44549 NORAD) Tracking and Keplerian Element Data

This shows tracking and keplerian element data for the satellite.

Feedback or suggestion? Click here.




ElementValue
Catalog44549
NameCZ-2D DEB
Epoch Orbit388
Epoch Day297.54477863
Epoch Year2019
RAAN320.4028
Inclination98.5466
Eccentricity0.0041797
Argument of Perigee183.6232
Mean Anonmoly176.4661
Mean Motion14.3664328
Decay Rate5.9E-07
L11 44549U 19063C 19297.54477863 .00000059 00000-0 34705-4 0 9994
L22 44549 98.5466 320.4028 0041797 183.6232 176.4661 14.36643280 3885



Live tracking and technical data element details for CZ-2D DEB (NORAD 44549). CZ-2D DEB can be tracked NOW for your location showing map with azimuth and elevation plus other details from your city location.







IsCatalogInMostPopularTable: catalog: 44549, numindb: 223
Update: records affected: 1



GetName: 44549 CZ-2D DEB

Hit Count: updated at: Sun, 28 May 2023 20:26:07 GMT